Location: Bottom School (historical)
(37.9078°N, 89.3593°W)
Time: 22:49:33
(UTC+00:00)

STRAND 1 - Pass Details

Date: 02 April 2023
Orbit: 767 x 779 km, 98.4° (Epoch: 28 May)

Event Time Altitude Azimuth Distance (km) Brightness Sun altitude
Rises 01:17:19 0° 5° (N) 3,245 ? -11.8°
Reaches altitude 10° 01:19:42 10° 359° (N) 2,314 ? -12.3°
Maximum altitude 01:24:31 44° 289° (WNW) 1,051 ? -13.2°
Drops below altitude 10° 01:29:19 10° 218° (SW) 2,300 ? -14.1°
Sets 01:31:42 0° 212° (SSW) 3,223 ? -14.6°
